Retour au catalogue

SINOD-D 3

ActifScienceLEO
NORAD 40977·PAYLOAD·🇺🇸 United States

Lancé Oct 8, 2015 depuis Vandenberg Space Force Base

Loading…

Prochains Passages (prochaines 24 heures)

TLE

FraisSource: Space-Track

Époque: Sep 14, 2026, 06:01 UTC

1 40977U 15058P   26257.25131723  .00001855  00000-0  16055-3 0  9991
2 40977  64.7742 357.5662 0126618  24.2562 336.4440 14.94561996128063

Suivez SINOD-D 3 en temps réel avec AllMySat

Download on the App Store